Location: Newark
(55.7083°N, 13.1992°E)
Time: 13:07:14
(UTC+00:00)

N. Korean satellite - Pass Details

Date: 29 January 2020
Orbit: 456 x 505 km, 97.2° (Epoch: 24 February)

Event Time Altitude Azimuth Distance (km) Brightness Sun altitude
Rises 16:13:29 0° 178° (S) 2,468 10.5 -5.8°
Reaches altitude 10° 16:15:33 10° 185° (S) 1,602 9.6 -6.0°
Maximum altitude 16:18:53 48° 260° (W) 618 7.7 -6.5°
Drops below altitude 10° 16:22:17 10° 336° (NNW) 1,631 9.3 -6.9°
Sets 16:24:24 0° 343° (NNW) 2,520 10.2 -7.2°
